Year,Month,Day,Hour,Minute,Value (Times are PST for temperature in C)
2019,04,02,00,00,7.60
2019,04,02,00,01,7.50
2019,04,02,00,02,7.50
2019,04,02,00,03,7.50
2019,04,02,00,04,7.40
2019,04,02,00,05,7.40
2019,04,02,00,06,7.40
2019,04,02,00,07,7.30
2019,04,02,00,08,7.30
2019,04,02,00,09,7.30
2019,04,02,00,10,7.20
2019,04,02,00,11,7.20
2019,04,02,00,12,7.20
2019,04,02,00,13,7.20
2019,04,02,00,14,7.20
2019,04,02,00,15,7.20
2019,04,02,00,16,7.20
2019,04,02,00,17,7.20
2019,04,02,00,18,7.20
2019,04,02,00,19,7.20
2019,04,02,00,20,7.20
2019,04,02,00,21,7.10
2019,04,02,00,22,7.10
2019,04,02,00,23,7.00
2019,04,02,00,24,7.00
2019,04,02,00,25,6.90
2019,04,02,00,26,6.90
2019,04,02,00,27,6.90
2019,04,02,00,28,6.90
2019,04,02,00,29,6.90
2019,04,02,00,30,6.80
2019,04,02,00,31,6.80
2019,04,02,00,32,6.80
2019,04,02,00,33,6.80
2019,04,02,00,34,6.80
2019,04,02,00,35,6.80
2019,04,02,00,36,6.80
2019,04,02,00,37,6.80
2019,04,02,00,38,6.80
2019,04,02,00,39,6.80
2019,04,02,00,40,6.80
2019,04,02,00,41,6.80
2019,04,02,00,42,6.80
2019,04,02,00,43,6.80
2019,04,02,00,44,6.80
2019,04,02,00,45,6.70
2019,04,02,00,46,6.70
2019,04,02,00,47,6.70
2019,04,02,00,48,6.70
2019,04,02,00,49,6.60
2019,04,02,00,50,6.60
2019,04,02,00,51,6.60
2019,04,02,00,52,6.50
2019,04,02,00,53,6.50
2019,04,02,00,54,6.40
2019,04,02,00,55,6.40
2019,04,02,00,56,6.40
2019,04,02,00,57,6.40
2019,04,02,00,58,6.30
2019,04,02,00,59,6.30
2019,04,02,01,00,6.30
2019,04,02,01,01,6.30
2019,04,02,01,02,6.30
2019,04,02,01,03,6.30
2019,04,02,01,04,6.30
2019,04,02,01,05,6.30
2019,04,02,01,06,6.20
2019,04,02,01,07,6.20
2019,04,02,01,08,6.20
2019,04,02,01,09,6.20
2019,04,02,01,10,6.20
2019,04,02,01,11,6.20
2019,04,02,01,12,6.20
2019,04,02,01,13,6.10
2019,04,02,01,14,6.10
2019,04,02,01,15,6.10
2019,04,02,01,16,6.10
2019,04,02,01,17,6.10
2019,04,02,01,18,6.10
2019,04,02,01,19,6.00
2019,04,02,01,20,6.00
2019,04,02,01,21,6.00
2019,04,02,01,22,6.00
2019,04,02,01,23,5.90
2019,04,02,01,24,5.90
2019,04,02,01,25,5.90
2019,04,02,01,26,5.90
2019,04,02,01,27,5.90
2019,04,02,01,28,5.90
2019,04,02,01,29,5.90
2019,04,02,01,30,5.90
2019,04,02,01,31,6.00
2019,04,02,01,32,6.00
2019,04,02,01,33,6.00
2019,04,02,01,34,6.00
2019,04,02,01,35,5.90
2019,04,02,01,36,5.90
2019,04,02,01,37,5.90
2019,04,02,01,38,5.90
2019,04,02,01,39,5.90
2019,04,02,01,40,5.90
2019,04,02,01,41,5.90
2019,04,02,01,42,5.80
2019,04,02,01,43,5.80
2019,04,02,01,44,5.80
2019,04,02,01,45,5.80
2019,04,02,01,46,5.80
2019,04,02,01,47,5.70
2019,04,02,01,48,5.70
2019,04,02,01,49,5.70
2019,04,02,01,50,5.70
2019,04,02,01,51,5.70
2019,04,02,01,52,5.70
2019,04,02,01,53,5.60
2019,04,02,01,54,5.60
2019,04,02,01,55,5.60
2019,04,02,01,56,5.60
2019,04,02,01,57,5.60
2019,04,02,01,58,5.60
2019,04,02,01,59,5.50
2019,04,02,02,00,5.50
2019,04,02,02,01,5.50
2019,04,02,02,02,5.50
2019,04,02,02,03,5.50
2019,04,02,02,04,5.50
2019,04,02,02,05,5.40
2019,04,02,02,06,5.40
2019,04,02,02,07,5.40
2019,04,02,02,08,5.40
2019,04,02,02,09,5.40
2019,04,02,02,10,5.40
2019,04,02,02,11,5.40
2019,04,02,02,12,5.30
2019,04,02,02,13,5.30
2019,04,02,02,14,5.30
2019,04,02,02,15,5.30
2019,04,02,02,16,5.30
2019,04,02,02,17,5.30
2019,04,02,02,18,5.30
2019,04,02,02,19,5.30
2019,04,02,02,20,5.30
2019,04,02,02,21,5.20
2019,04,02,02,22,5.20
2019,04,02,02,23,5.20
2019,04,02,02,24,5.20
2019,04,02,02,25,5.20
2019,04,02,02,26,5.20
2019,04,02,02,27,5.20
2019,04,02,02,28,5.20
2019,04,02,02,29,5.20
2019,04,02,02,30,5.20
2019,04,02,02,31,5.10
2019,04,02,02,32,5.10
2019,04,02,02,33,5.10
2019,04,02,02,34,5.10
2019,04,02,02,35,5.00
2019,04,02,02,36,5.00
2019,04,02,02,37,5.00
2019,04,02,02,38,5.00
2019,04,02,02,39,4.90
2019,04,02,02,40,4.90
2019,04,02,02,41,4.90
2019,04,02,02,42,4.90
2019,04,02,02,43,4.80
2019,04,02,02,44,4.80
2019,04,02,02,45,4.80
2019,04,02,02,46,4.80
2019,04,02,02,47,4.80
2019,04,02,02,48,4.80
2019,04,02,02,49,4.80
2019,04,02,02,50,4.80
2019,04,02,02,51,4.80
2019,04,02,02,52,4.80
2019,04,02,02,53,4.80
2019,04,02,02,54,4.80
2019,04,02,02,55,4.80
2019,04,02,02,56,4.90
2019,04,02,02,57,4.90
2019,04,02,02,58,4.90
2019,04,02,02,59,4.90
2019,04,02,03,00,4.90
2019,04,02,03,01,4.90
2019,04,02,03,02,4.80
2019,04,02,03,03,4.80
2019,04,02,03,04,4.80
2019,04,02,03,05,4.80
2019,04,02,03,06,4.80
2019,04,02,03,07,4.80
2019,04,02,03,08,4.80
2019,04,02,03,09,4.80
2019,04,02,03,10,4.80
2019,04,02,03,11,4.80
2019,04,02,03,12,4.70
2019,04,02,03,13,4.70
2019,04,02,03,14,4.70
2019,04,02,03,15,4.70
2019,04,02,03,16,4.70
2019,04,02,03,17,4.70
2019,04,02,03,18,4.70
2019,04,02,03,19,4.70
2019,04,02,03,20,4.70
2019,04,02,03,21,4.60
2019,04,02,03,22,4.60
2019,04,02,03,23,4.60
2019,04,02,03,24,4.60
2019,04,02,03,25,4.60
2019,04,02,03,26,4.60
2019,04,02,03,27,4.60
2019,04,02,03,28,4.50
2019,04,02,03,29,4.50
2019,04,02,03,30,4.50
2019,04,02,03,31,4.50
2019,04,02,03,32,4.50
2019,04,02,03,33,4.50
2019,04,02,03,34,4.40
2019,04,02,03,35,4.40
2019,04,02,03,36,4.40
2019,04,02,03,37,4.40
2019,04,02,03,38,4.40
2019,04,02,03,39,4.40
2019,04,02,03,40,4.40
2019,04,02,03,41,4.40
2019,04,02,03,42,4.40
2019,04,02,03,43,4.30
2019,04,02,03,44,4.30
2019,04,02,03,45,4.30
2019,04,02,03,46,4.30
2019,04,02,03,47,4.30
2019,04,02,03,48,4.30
2019,04,02,03,49,4.30
2019,04,02,03,50,4.30
2019,04,02,03,51,4.30
2019,04,02,03,52,4.30
2019,04,02,03,53,4.30
2019,04,02,03,54,4.30
2019,04,02,03,55,4.30
2019,04,02,03,56,4.30
2019,04,02,03,57,4.30
2019,04,02,03,58,4.20
2019,04,02,03,59,4.20
2019,04,02,04,00,4.20
2019,04,02,04,01,4.20
2019,04,02,04,02,4.20
2019,04,02,04,03,4.20
2019,04,02,04,04,4.20
2019,04,02,04,05,4.20
2019,04,02,04,06,4.10
2019,04,02,04,07,4.10
2019,04,02,04,08,4.10
2019,04,02,04,09,4.10
2019,04,02,04,10,4.10
2019,04,02,04,11,4.10
2019,04,02,04,12,4.10
2019,04,02,04,13,4.10
2019,04,02,04,14,4.00
2019,04,02,04,15,4.00
2019,04,02,04,16,4.00
2019,04,02,04,17,4.00
2019,04,02,04,18,4.00
2019,04,02,04,19,4.00
2019,04,02,04,20,4.00
2019,04,02,04,21,3.90
2019,04,02,04,22,3.90
2019,04,02,04,23,3.90
2019,04,02,04,24,3.90
2019,04,02,04,25,3.90
2019,04,02,04,26,3.90
2019,04,02,04,27,3.90
2019,04,02,04,28,3.90
2019,04,02,04,29,3.90
2019,04,02,04,30,3.90
2019,04,02,04,31,3.90
2019,04,02,04,32,3.90
2019,04,02,04,33,3.90
2019,04,02,04,34,3.90
2019,04,02,04,35,3.90
2019,04,02,04,36,3.90
2019,04,02,04,37,3.90
2019,04,02,04,38,3.90
2019,04,02,04,39,3.90
2019,04,02,04,40,3.90
2019,04,02,04,41,3.90
2019,04,02,04,42,3.90
2019,04,02,04,43,3.90
2019,04,02,04,44,3.90
2019,04,02,04,45,3.90
2019,04,02,04,46,3.90
2019,04,02,04,47,3.90
2019,04,02,04,48,3.90
2019,04,02,04,49,3.90
2019,04,02,04,50,3.90
2019,04,02,04,51,4.00
2019,04,02,04,52,4.00
2019,04,02,04,53,4.00
2019,04,02,04,54,4.00
2019,04,02,04,55,4.00
2019,04,02,04,56,4.00
2019,04,02,04,57,4.00
2019,04,02,04,58,4.00
2019,04,02,04,59,4.00
2019,04,02,05,00,4.00
2019,04,02,05,01,4.00
2019,04,02,05,02,4.00
2019,04,02,05,03,4.00
2019,04,02,05,04,3.90
2019,04,02,05,05,3.90
2019,04,02,05,06,3.90
2019,04,02,05,07,3.80
2019,04,02,05,08,3.80
2019,04,02,05,09,3.80
2019,04,02,05,10,3.80
2019,04,02,05,11,3.70
2019,04,02,05,12,3.70
2019,04,02,05,13,3.70
2019,04,02,05,14,3.70
2019,04,02,05,15,3.70
2019,04,02,05,16,3.70
2019,04,02,05,17,3.60
2019,04,02,05,18,3.60
2019,04,02,05,19,3.60
2019,04,02,05,20,3.60
2019,04,02,05,21,3.60
2019,04,02,05,22,3.60
2019,04,02,05,23,3.60
2019,04,02,05,24,3.60
2019,04,02,05,25,3.50
2019,04,02,05,26,3.50
2019,04,02,05,27,3.50
2019,04,02,05,28,3.50
2019,04,02,05,29,3.50
2019,04,02,05,30,3.50
2019,04,02,05,31,3.50
2019,04,02,05,32,3.50
2019,04,02,05,33,3.40
2019,04,02,05,34,3.40
2019,04,02,05,35,3.40
2019,04,02,05,36,3.40
2019,04,02,05,37,3.40
2019,04,02,05,38,3.40
2019,04,02,05,39,3.40
2019,04,02,05,40,3.30
2019,04,02,05,41,3.30
2019,04,02,05,42,3.30
2019,04,02,05,43,3.30
2019,04,02,05,44,3.30
2019,04,02,05,45,3.20
2019,04,02,05,46,3.20
2019,04,02,05,47,3.20
2019,04,02,05,48,3.20
2019,04,02,05,49,3.20
2019,04,02,05,50,3.20
2019,04,02,05,51,3.10
2019,04,02,05,52,3.10
2019,04,02,05,53,3.10
2019,04,02,05,54,3.10
2019,04,02,05,55,3.10
2019,04,02,05,56,3.10
2019,04,02,05,57,3.10
2019,04,02,05,58,3.10
2019,04,02,05,59,3.10
2019,04,02,06,00,3.00
2019,04,02,06,01,3.00
2019,04,02,06,02,3.00
2019,04,02,06,03,3.00
2019,04,02,06,04,3.00
2019,04,02,06,05,3.00
2019,04,02,06,06,3.00
2019,04,02,06,07,3.00
2019,04,02,06,08,3.00
2019,04,02,06,09,2.90
2019,04,02,06,10,2.90
2019,04,02,06,11,2.90
2019,04,02,06,12,2.90
2019,04,02,06,13,2.90
2019,04,02,06,14,2.90
2019,04,02,06,15,2.90
2019,04,02,06,16,2.90
2019,04,02,06,17,2.90
2019,04,02,06,18,2.90
2019,04,02,06,19,2.90
2019,04,02,06,20,2.90
2019,04,02,06,21,2.90
2019,04,02,06,22,2.90
2019,04,02,06,23,3.00
2019,04,02,06,24,3.00
2019,04,02,06,25,3.00
2019,04,02,06,26,3.00
2019,04,02,06,27,3.00
2019,04,02,06,28,3.10
2019,04,02,06,29,3.10
2019,04,02,06,30,3.10
2019,04,02,06,31,3.10
2019,04,02,06,32,3.10
2019,04,02,06,33,3.10
2019,04,02,06,34,3.10
2019,04,02,06,35,3.10
2019,04,02,06,36,3.10
2019,04,02,06,37,3.10
2019,04,02,06,38,3.10
2019,04,02,06,39,3.10
2019,04,02,06,40,3.10
2019,04,02,06,41,3.10
2019,04,02,06,42,3.10
2019,04,02,06,43,3.10
2019,04,02,06,44,3.10
2019,04,02,06,45,3.10
2019,04,02,06,46,3.10
2019,04,02,06,47,3.00
2019,04,02,06,48,3.00
2019,04,02,06,49,3.00
2019,04,02,06,50,2.90
2019,04,02,06,51,2.90
2019,04,02,06,52,2.90
2019,04,02,06,53,2.90
2019,04,02,06,54,2.90
2019,04,02,06,55,2.80
2019,04,02,06,56,2.80
2019,04,02,06,57,2.80
2019,04,02,06,58,2.80
2019,04,02,06,59,2.90
2019,04,02,07,00,2.90
2019,04,02,07,01,2.90
2019,04,02,07,02,2.90
2019,04,02,07,03,2.90
2019,04,02,07,04,2.90
2019,04,02,07,05,2.90
2019,04,02,07,06,3.00
2019,04,02,07,07,3.00
2019,04,02,07,08,3.00
2019,04,02,07,09,3.10
2019,04,02,07,10,3.10
2019,04,02,07,11,3.10
2019,04,02,07,12,3.10
2019,04,02,07,13,3.10
2019,04,02,07,14,3.10
2019,04,02,07,15,3.10
2019,04,02,07,16,3.10
2019,04,02,07,17,3.10
2019,04,02,07,18,3.10
2019,04,02,07,19,3.10
2019,04,02,07,20,3.10
2019,04,02,07,21,3.10
2019,04,02,07,22,3.10
2019,04,02,07,23,3.10
2019,04,02,07,24,3.10
2019,04,02,07,25,3.10
2019,04,02,07,26,3.10
2019,04,02,07,27,3.10
2019,04,02,07,28,3.00
2019,04,02,07,29,3.00
2019,04,02,07,30,3.00
2019,04,02,07,31,3.00
2019,04,02,07,32,3.00
2019,04,02,07,33,2.90
2019,04,02,07,34,2.90
2019,04,02,07,35,2.90
2019,04,02,07,36,2.90
2019,04,02,07,37,2.90
2019,04,02,07,38,3.00
2019,04,02,07,39,3.00
2019,04,02,07,40,3.00
2019,04,02,07,41,3.00
2019,04,02,07,42,3.10
2019,04,02,07,43,3.10
2019,04,02,07,44,3.10
2019,04,02,07,45,3.20
2019,04,02,07,46,3.20
2019,04,02,07,47,3.20
2019,04,02,07,48,3.20
2019,04,02,07,49,3.30
2019,04,02,07,50,3.30
2019,04,02,07,51,3.40
2019,04,02,07,52,3.40
2019,04,02,07,53,3.40
2019,04,02,07,54,3.50
2019,04,02,07,55,3.50
2019,04,02,07,56,3.60
2019,04,02,07,57,3.60
2019,04,02,07,58,3.70
2019,04,02,07,59,3.70
2019,04,02,08,00,3.70
2019,04,02,08,01,3.80
2019,04,02,08,02,3.80
2019,04,02,08,03,3.90
2019,04,02,08,04,4.00
2019,04,02,08,05,4.10
2019,04,02,08,06,4.20
2019,04,02,08,07,4.20
2019,04,02,08,08,4.30
2019,04,02,08,09,4.30
2019,04,02,08,10,4.40
2019,04,02,08,11,4.50
2019,04,02,08,12,4.60
2019,04,02,08,13,4.60
2019,04,02,08,14,4.70
2019,04,02,08,15,4.80
2019,04,02,08,16,4.80
2019,04,02,08,17,4.90
2019,04,02,08,18,5.00
2019,04,02,08,19,5.10
2019,04,02,08,20,5.10
2019,04,02,08,21,5.20
2019,04,02,08,22,5.20
2019,04,02,08,23,5.30
2019,04,02,08,24,5.40
2019,04,02,08,25,5.40
2019,04,02,08,26,5.50
2019,04,02,08,27,5.50
2019,04,02,08,28,5.60
2019,04,02,08,29,5.70
2019,04,02,08,30,5.70
2019,04,02,08,31,5.80
2019,04,02,08,32,5.90
2019,04,02,08,33,6.00
2019,04,02,08,34,6.10
2019,04,02,08,35,6.20
2019,04,02,08,36,6.30
2019,04,02,08,37,6.40
2019,04,02,08,38,6.50
2019,04,02,08,39,6.50
2019,04,02,08,40,6.60
2019,04,02,08,41,6.70
2019,04,02,08,42,6.70
2019,04,02,08,43,6.80
2019,04,02,08,44,6.80
2019,04,02,08,45,6.90
2019,04,02,08,46,7.00
2019,04,02,08,47,7.10
2019,04,02,08,48,7.20
2019,04,02,08,49,7.20
2019,04,02,08,50,7.30
2019,04,02,08,51,7.40
2019,04,02,08,52,7.50
2019,04,02,08,53,7.60
2019,04,02,08,54,7.70
2019,04,02,08,55,7.70
2019,04,02,08,56,7.80
2019,04,02,08,57,7.80
2019,04,02,08,58,7.90
2019,04,02,08,59,7.90
2019,04,02,09,00,8.00
2019,04,02,09,01,8.10
2019,04,02,09,02,8.10
2019,04,02,09,03,8.20
2019,04,02,09,04,8.20
2019,04,02,09,05,8.30
2019,04,02,09,06,8.40
2019,04,02,09,07,8.40
2019,04,02,09,08,8.50
2019,04,02,09,09,8.60
2019,04,02,09,10,8.70
2019,04,02,09,11,8.70
2019,04,02,09,12,8.80
2019,04,02,09,13,8.90
2019,04,02,09,14,9.00
2019,04,02,09,15,9.00
2019,04,02,09,16,9.10
2019,04,02,09,17,9.20
2019,04,02,09,18,9.30
2019,04,02,09,19,9.30
2019,04,02,09,20,9.40
2019,04,02,09,21,9.50
2019,04,02,09,22,9.60
2019,04,02,09,23,9.70
2019,04,02,09,24,9.80
2019,04,02,09,25,9.90
2019,04,02,09,26,10.00
2019,04,02,09,27,10.10
2019,04,02,09,28,10.20
2019,04,02,09,29,10.30
2019,04,02,09,30,10.30
2019,04,02,09,31,10.40
2019,04,02,09,32,10.50
2019,04,02,09,33,10.60
2019,04,02,09,34,10.70
2019,04,02,09,35,10.80
2019,04,02,09,36,10.90
2019,04,02,09,37,11.00
2019,04,02,09,38,11.10
2019,04,02,09,39,11.20
2019,04,02,09,40,11.30
2019,04,02,09,41,11.30
2019,04,02,09,42,11.40
2019,04,02,09,43,11.50
2019,04,02,09,44,11.60
2019,04,02,09,45,11.70
2019,04,02,09,46,11.80
2019,04,02,09,47,11.90
2019,04,02,09,48,12.00
2019,04,02,09,49,12.10
2019,04,02,09,50,12.20
2019,04,02,09,51,12.40
2019,04,02,09,52,12.50
2019,04,02,09,53,12.60
2019,04,02,09,54,12.70
2019,04,02,09,55,12.80
2019,04,02,09,56,12.80
2019,04,02,09,57,12.90
2019,04,02,09,58,13.00
2019,04,02,09,59,13.00
2019,04,02,10,00,13.10
2019,04,02,10,01,13.20
2019,04,02,10,02,13.30
2019,04,02,10,03,13.40
2019,04,02,10,04,13.50
2019,04,02,10,05,13.60
2019,04,02,10,06,13.70
2019,04,02,10,07,13.80
2019,04,02,10,08,13.90
2019,04,02,10,09,14.00
2019,04,02,10,10,14.10
2019,04,02,10,11,14.20
2019,04,02,10,12,14.20
2019,04,02,10,13,14.30
2019,04,02,10,14,14.30
2019,04,02,10,15,14.30
2019,04,02,10,16,14.30
2019,04,02,10,17,14.30
2019,04,02,10,18,14.30
2019,04,02,10,19,14.30
2019,04,02,10,20,14.30
2019,04,02,10,21,14.30
2019,04,02,10,22,14.40
2019,04,02,10,23,14.40
2019,04,02,10,24,14.50
2019,04,02,10,25,14.50
2019,04,02,10,26,14.60
2019,04,02,10,27,14.70
2019,04,02,10,28,14.80
2019,04,02,10,29,14.90
2019,04,02,10,30,14.90
2019,04,02,10,31,15.00
2019,04,02,10,32,15.00
2019,04,02,10,33,15.10
2019,04,02,10,34,15.10
2019,04,02,10,35,15.10
2019,04,02,10,36,15.20
2019,04,02,10,37,15.20
2019,04,02,10,38,15.30
2019,04,02,10,39,15.30
2019,04,02,10,40,15.40
2019,04,02,10,41,15.40
2019,04,02,10,42,15.50
2019,04,02,10,43,15.60
2019,04,02,10,44,15.60
2019,04,02,10,45,15.70
2019,04,02,10,46,15.80
2019,04,02,10,47,15.80
2019,04,02,10,48,15.80
2019,04,02,10,49,15.70
2019,04,02,10,50,15.70
2019,04,02,10,51,15.70
2019,04,02,10,52,15.70
2019,04,02,10,53,15.70
2019,04,02,10,54,15.70
2019,04,02,10,55,15.60
2019,04,02,10,56,15.60
2019,04,02,10,57,15.60
2019,04,02,10,58,15.60
2019,04,02,10,59,15.70
2019,04,02,11,00,15.70
2019,04,02,11,01,15.80
2019,04,02,11,02,15.90
2019,04,02,11,03,15.90
2019,04,02,11,04,15.90
2019,04,02,11,05,15.90
2019,04,02,11,06,15.90
2019,04,02,11,07,15.90
2019,04,02,11,08,15.90
2019,04,02,11,09,15.90
2019,04,02,11,10,15.90
2019,04,02,11,11,15.80
2019,04,02,11,12,15.80
2019,04,02,11,13,15.70
2019,04,02,11,14,15.80
2019,04,02,11,15,15.80
2019,04,02,11,16,15.90
2019,04,02,11,17,16.00
2019,04,02,11,18,16.00
2019,04,02,11,19,16.10
2019,04,02,11,20,16.10
2019,04,02,11,21,16.10
2019,04,02,11,22,16.10
2019,04,02,11,23,16.10
2019,04,02,11,24,16.10
2019,04,02,11,25,16.20
2019,04,02,11,26,16.20
2019,04,02,11,27,16.20
2019,04,02,11,28,16.20
2019,04,02,11,29,16.20
2019,04,02,11,30,16.20
2019,04,02,11,31,16.30
2019,04,02,11,32,16.30
2019,04,02,11,33,16.40
2019,04,02,11,34,16.40
2019,04,02,11,35,16.50
2019,04,02,11,36,16.50
2019,04,02,11,37,16.50
2019,04,02,11,38,16.60
2019,04,02,11,39,16.60
2019,04,02,11,40,16.70
2019,04,02,11,41,16.70
2019,04,02,11,42,16.80
2019,04,02,11,43,16.80
2019,04,02,11,44,16.80
2019,04,02,11,45,16.70
2019,04,02,11,46,16.70
2019,04,02,11,47,16.70
2019,04,02,11,48,16.70
2019,04,02,11,49,16.70
2019,04,02,11,50,16.70
2019,04,02,11,51,16.70
2019,04,02,11,52,16.70
2019,04,02,11,53,16.80
2019,04,02,11,54,16.80
2019,04,02,11,55,16.80
2019,04,02,11,56,16.80
2019,04,02,11,57,16.80
2019,04,02,11,58,16.80
2019,04,02,11,59,16.70
2019,04,02,12,00,16.60
2019,04,02,12,01,16.60
2019,04,02,12,02,16.60
2019,04,02,12,03,16.60
2019,04,02,12,04,16.60
2019,04,02,12,05,16.60
2019,04,02,12,06,16.60
2019,04,02,12,07,16.60
2019,04,02,12,08,16.60
2019,04,02,12,09,16.60
2019,04,02,12,10,16.70
2019,04,02,12,11,16.70
2019,04,02,12,12,16.70
2019,04,02,12,13,16.80
2019,04,02,12,14,16.80
2019,04,02,12,15,16.90
2019,04,02,12,16,16.90
2019,04,02,12,17,17.00
2019,04,02,12,18,17.00
2019,04,02,12,19,17.00
2019,04,02,12,20,16.90
2019,04,02,12,21,16.90
2019,04,02,12,22,16.90
2019,04,02,12,23,16.90
2019,04,02,12,24,16.80
2019,04,02,12,25,16.80
2019,04,02,12,26,16.80
2019,04,02,12,27,16.70
2019,04,02,12,28,16.70
2019,04,02,12,29,16.70
2019,04,02,12,30,16.70
2019,04,02,12,31,16.70
2019,04,02,12,32,16.70
2019,04,02,12,33,16.70
2019,04,02,12,34,16.70
2019,04,02,12,35,16.70
2019,04,02,12,36,16.70
2019,04,02,12,37,16.60
2019,04,02,12,38,16.60
2019,04,02,12,39,16.60
2019,04,02,12,40,16.60
2019,04,02,12,41,16.60
2019,04,02,12,42,16.60
2019,04,02,12,43,16.70
2019,04,02,12,44,16.70
2019,04,02,12,45,16.80
2019,04,02,12,46,16.90
2019,04,02,12,47,17.00
2019,04,02,12,48,17.10
2019,04,02,12,49,17.20
2019,04,02,12,50,17.30
2019,04,02,12,51,17.40
2019,04,02,12,52,17.50
2019,04,02,12,53,17.50
2019,04,02,12,54,17.60
2019,04,02,12,55,17.60
2019,04,02,12,56,17.70
2019,04,02,12,57,17.70
2019,04,02,12,58,17.70
2019,04,02,12,59,17.80
2019,04,02,13,00,17.80
2019,04,02,13,01,17.80
2019,04,02,13,02,17.80
2019,04,02,13,03,17.70
2019,04,02,13,04,17.70
2019,04,02,13,05,17.70
2019,04,02,13,06,17.70
2019,04,02,13,07,17.70
2019,04,02,13,08,17.70
2019,04,02,13,09,17.70
2019,04,02,13,10,17.70
2019,04,02,13,11,17.70
2019,04,02,13,12,17.80
2019,04,02,13,13,17.80
2019,04,02,13,14,17.80
2019,04,02,13,15,17.80
2019,04,02,13,16,17.80
2019,04,02,13,17,17.80
2019,04,02,13,18,17.80
2019,04,02,13,19,17.80
2019,04,02,13,20,17.80
2019,04,02,13,21,17.90
2019,04,02,13,22,17.90
2019,04,02,13,23,18.00
2019,04,02,13,24,18.00
2019,04,02,13,25,18.10
2019,04,02,13,26,18.20
2019,04,02,13,27,18.20
2019,04,02,13,28,18.20
2019,04,02,13,29,18.20
2019,04,02,13,30,18.20
2019,04,02,13,31,18.20
2019,04,02,13,32,18.20
2019,04,02,13,33,18.20
2019,04,02,13,34,18.20
2019,04,02,13,35,18.20
2019,04,02,13,36,18.10
2019,04,02,13,37,18.10
2019,04,02,13,38,18.10
2019,04,02,13,39,18.10
2019,04,02,13,40,18.10
2019,04,02,13,41,18.10
2019,04,02,13,42,18.20
2019,04,02,13,43,18.20
2019,04,02,13,44,18.20
2019,04,02,13,45,18.10
2019,04,02,13,46,18.10
2019,04,02,13,47,18.00
2019,04,02,13,48,18.00
2019,04,02,13,49,18.00
2019,04,02,13,50,18.00
2019,04,02,13,51,18.00
2019,04,02,13,52,18.00
2019,04,02,13,53,18.00
2019,04,02,13,54,18.00
2019,04,02,13,55,18.00
2019,04,02,13,56,17.90
2019,04,02,13,57,17.90
2019,04,02,13,58,17.90
2019,04,02,13,59,17.80
2019,04,02,14,00,17.80
2019,04,02,14,01,17.80
2019,04,02,14,02,17.70
2019,04,02,14,03,17.70
2019,04,02,14,04,17.60
2019,04,02,14,05,17.50
2019,04,02,14,06,17.40
2019,04,02,14,07,17.40
2019,04,02,14,08,17.30
2019,04,02,14,09,17.30
2019,04,02,14,10,17.30
2019,04,02,14,11,17.30
2019,04,02,14,12,17.30
2019,04,02,14,13,17.30
2019,04,02,14,14,17.30
2019,04,02,14,15,17.30
2019,04,02,14,16,17.30
2019,04,02,14,17,17.30
2019,04,02,14,18,17.30
2019,04,02,14,19,17.30
2019,04,02,14,20,17.30
2019,04,02,14,21,17.30
2019,04,02,14,22,17.50
2019,04,02,14,23,17.60
2019,04,02,14,24,17.60
2019,04,02,14,25,17.60
2019,04,02,14,26,17.60
2019,04,02,14,27,17.60
2019,04,02,14,28,17.70
2019,04,02,14,29,17.70
2019,04,02,14,30,17.80
2019,04,02,14,31,17.80
2019,04,02,14,32,17.80
2019,04,02,14,33,17.80
2019,04,02,14,34,17.80
2019,04,02,14,35,17.80
2019,04,02,14,36,17.80
2019,04,02,14,37,17.80
2019,04,02,14,38,17.90
2019,04,02,14,39,18.00
2019,04,02,14,40,18.00
2019,04,02,14,41,18.10
2019,04,02,14,42,18.20
2019,04,02,14,43,18.20
2019,04,02,14,44,18.20
2019,04,02,14,45,18.30
2019,04,02,14,46,18.30
2019,04,02,14,47,18.40
2019,04,02,14,48,18.50
2019,04,02,14,49,18.50
2019,04,02,14,50,18.50
2019,04,02,14,51,18.60
2019,04,02,14,52,18.60
2019,04,02,14,53,18.70
2019,04,02,14,54,18.80
2019,04,02,14,55,18.80
2019,04,02,14,56,18.90
2019,04,02,14,57,18.90
2019,04,02,14,58,18.90
2019,04,02,14,59,18.90
2019,04,02,15,00,18.90
2019,04,02,15,01,18.80
2019,04,02,15,02,18.80
2019,04,02,15,03,18.80
2019,04,02,15,04,18.80
2019,04,02,15,05,18.80
2019,04,02,15,06,18.80
2019,04,02,15,07,18.80
2019,04,02,15,08,18.90
2019,04,02,15,09,18.90
2019,04,02,15,10,18.90
2019,04,02,15,11,18.90
2019,04,02,15,12,18.90
2019,04,02,15,13,18.90
2019,04,02,15,14,18.90
2019,04,02,15,15,18.90
2019,04,02,15,16,18.80
2019,04,02,15,17,18.80
2019,04,02,15,18,18.80
2019,04,02,15,19,18.80
2019,04,02,15,20,18.70
2019,04,02,15,21,18.60
2019,04,02,15,22,18.50
2019,04,02,15,23,18.40
2019,04,02,15,24,18.30
2019,04,02,15,25,18.30
2019,04,02,15,26,18.30
2019,04,02,15,27,18.20
2019,04,02,15,28,18.20
2019,04,02,15,29,18.10
2019,04,02,15,30,18.10
2019,04,02,15,31,18.00
2019,04,02,15,32,18.00
2019,04,02,15,33,17.90
2019,04,02,15,34,17.90
2019,04,02,15,35,17.90
2019,04,02,15,36,17.90
2019,04,02,15,37,17.90
2019,04,02,15,38,17.90
2019,04,02,15,39,17.90
2019,04,02,15,40,17.90
2019,04,02,15,41,17.90
2019,04,02,15,42,17.80
2019,04,02,15,43,17.80
2019,04,02,15,44,17.80
2019,04,02,15,45,17.80
2019,04,02,15,46,17.70
2019,04,02,15,47,17.70
2019,04,02,15,48,17.70
2019,04,02,15,49,17.70
2019,04,02,15,50,17.70
2019,04,02,15,51,17.60
2019,04,02,15,52,17.60
2019,04,02,15,53,17.60
2019,04,02,15,54,17.60
2019,04,02,15,55,17.60
2019,04,02,15,56,17.70
2019,04,02,15,57,17.70
2019,04,02,15,58,17.70
2019,04,02,15,59,17.70
2019,04,02,16,00,17.80
2019,04,02,16,01,17.80
2019,04,02,16,02,17.80
2019,04,02,16,03,17.70
2019,04,02,16,04,17.70
2019,04,02,16,05,17.70
2019,04,02,16,06,17.70
2019,04,02,16,07,17.70
2019,04,02,16,08,17.70
2019,04,02,16,09,17.70
2019,04,02,16,10,17.70
2019,04,02,16,11,17.70
2019,04,02,16,12,17.70
2019,04,02,16,13,17.70
2019,04,02,16,14,17.60
2019,04,02,16,15,17.50
2019,04,02,16,16,17.40
2019,04,02,16,17,17.30
2019,04,02,16,18,17.20
2019,04,02,16,19,17.10
2019,04,02,16,20,16.90
2019,04,02,16,21,16.80
2019,04,02,16,22,16.70
2019,04,02,16,23,16.60
2019,04,02,16,24,16.60
2019,04,02,16,25,16.50
2019,04,02,16,26,16.50
2019,04,02,16,27,16.50
2019,04,02,16,28,16.40
2019,04,02,16,29,16.40
2019,04,02,16,30,16.40
2019,04,02,16,31,16.40
2019,04,02,16,32,16.40
2019,04,02,16,33,16.40
2019,04,02,16,34,16.40
2019,04,02,16,35,16.40
2019,04,02,16,36,16.30
2019,04,02,16,37,16.30
2019,04,02,16,38,16.30
2019,04,02,16,39,16.30
2019,04,02,16,40,16.40
2019,04,02,16,41,16.40
2019,04,02,16,42,16.40
2019,04,02,16,43,16.40
2019,04,02,16,44,16.40
2019,04,02,16,45,16.40
2019,04,02,16,46,16.40
2019,04,02,16,47,16.40
2019,04,02,16,48,16.40
2019,04,02,16,49,16.40
2019,04,02,16,50,16.40
2019,04,02,16,51,16.40
2019,04,02,16,52,16.40
2019,04,02,16,53,16.40
2019,04,02,16,54,16.30
2019,04,02,16,55,16.30
2019,04,02,16,56,16.30
2019,04,02,16,57,16.40
2019,04,02,16,58,16.40
2019,04,02,16,59,16.40
2019,04,02,17,00,16.40
2019,04,02,17,01,16.40
2019,04,02,17,02,16.40
2019,04,02,17,03,16.50
2019,04,02,17,04,16.50
2019,04,02,17,05,16.50
2019,04,02,17,06,16.50
2019,04,02,17,07,16.50
2019,04,02,17,08,16.40
2019,04,02,17,09,16.40
2019,04,02,17,10,16.30
2019,04,02,17,11,16.30
2019,04,02,17,12,16.20
2019,04,02,17,13,16.20
2019,04,02,17,14,16.10
2019,04,02,17,15,16.10
2019,04,02,17,16,16.00
2019,04,02,17,17,16.00
2019,04,02,17,18,15.90
2019,04,02,17,19,15.90
2019,04,02,17,20,15.90
2019,04,02,17,21,15.80
2019,04,02,17,22,15.80
2019,04,02,17,23,15.80
2019,04,02,17,24,15.80
2019,04,02,17,25,15.70
2019,04,02,17,26,15.70
2019,04,02,17,27,15.60
2019,04,02,17,28,15.60
2019,04,02,17,29,15.60
2019,04,02,17,30,15.50
2019,04,02,17,31,15.50
2019,04,02,17,32,15.40
2019,04,02,17,33,15.40
2019,04,02,17,34,15.40
2019,04,02,17,35,15.40
2019,04,02,17,36,15.30
2019,04,02,17,37,15.30
2019,04,02,17,38,15.30
2019,04,02,17,39,15.30
2019,04,02,17,40,15.20
2019,04,02,17,41,15.20
2019,04,02,17,42,15.20
2019,04,02,17,43,15.20
2019,04,02,17,44,15.20